CSAPA SBJR-SBRJ

Flight info

Callsign CSAPA
Flight time 0h 24m
Altitude 1500
Route REA
Aircraft C152/L-V/N

Departure

Time 2026-04-16 23:29
Airport Jacarepaguá - Roberto Marinho Airport (SBJR)

Arrival

Time 2026-04-16 23:53
Airport Santos Dumont Airport (SBRJ)
Time Latitude Longitude Altitude Speed Heading
2026-04-16 23:20 -22.98692 -43.37047 13 ft 0 kts
2026-04-16 23:25 -22.98690 -43.37047 13 ft 1 kts
2026-04-16 23:25 -22.98667 -43.37047 13 ft 6 kts 340°
2026-04-16 23:25 -22.98650 -43.37089 13 ft 5 kts 306°
2026-04-16 23:26 -22.98618 -43.37095 13 ft 8 kts
2026-04-16 23:26 -22.98554 -43.37090 13 ft 9 kts
2026-04-16 23:26 -22.98488 -43.37085 13 ft 11 kts
2026-04-16 23:26 -22.98414 -43.37080 13 ft 9 kts
2026-04-16 23:27 -22.98384 -43.37079 13 ft 2 kts
2026-04-16 23:27 -22.98375 -43.37079 13 ft 2 kts
2026-04-16 23:27 -22.98323 -43.37077 13 ft 8 kts 359°
2026-04-16 23:27 -22.98296 -43.37102 13 ft 5 kts 276°
2026-04-16 23:28 -22.98292 -43.37166 13 ft 10 kts 262°
2026-04-16 23:28 -22.98336 -43.37197 13 ft 8 kts 176°
2026-04-16 23:28 -22.98365 -43.37199 13 ft 15 kts 185°
2026-04-16 23:28 -22.98678 -43.37219 15 ft 70 kts 184°
2026-04-16 23:29 -22.99183 -43.37256 237 ft 70 kts 184°
2026-04-16 23:29 -22.99679 -43.37302 443 ft 74 kts 185°
2026-04-16 23:29 -23.00222 -43.37346 590 ft 86 kts 184°
2026-04-16 23:29 -23.00805 -43.37385 791 ft 82 kts 184°
2026-04-16 23:30 -23.01390 -43.37408 888 ft 84 kts 181°
2026-04-16 23:30 -23.01965 -43.37419 1008 ft 84 kts 181°
2026-04-16 23:30 -23.02553 -43.37433 1118 ft 83 kts 181°
2026-04-16 23:30 -23.03126 -43.37468 1219 ft 84 kts 184°
2026-04-16 23:31 -23.03709 -43.37517 1328 ft 84 kts 184°
2026-04-16 23:31 -23.04295 -43.37569 1438 ft 84 kts 185°
2026-04-16 23:31 -23.04897 -43.37620 1497 ft 90 kts 184°
2026-04-16 23:31 -23.05533 -43.37662 1505 ft 96 kts 182°
2026-04-16 23:32 -23.06211 -43.37610 1507 ft 102 kts 156°
2026-04-16 23:32 -23.06671 -43.37031 1498 ft 103 kts 107°
2026-04-16 23:32 -23.06663 -43.36274 1538 ft 103 kts 79°
2026-04-16 23:32 -23.06493 -43.35502 1520 ft 106 kts 78°
2026-04-16 23:33 -23.06339 -43.34713 1513 ft 107 kts 79°
2026-04-16 23:33 -23.06264 -43.33908 1503 ft 107 kts 87°
2026-04-16 23:33 -23.06237 -43.33103 1515 ft 106 kts 89°
2026-04-16 23:33 -23.06265 -43.32298 1504 ft 107 kts 95°
2026-04-16 23:34 -23.06356 -43.31493 1507 ft 107 kts 96°
2026-04-16 23:34 -23.06399 -43.30695 1516 ft 106 kts 90°
2026-04-16 23:34 -23.06376 -43.29890 1511 ft 107 kts 88°
2026-04-16 23:34 -23.06357 -43.29085 1511 ft 107 kts 90°
2026-04-16 23:35 -23.06348 -43.28279 1513 ft 107 kts 89°
2026-04-16 23:35 -23.06326 -43.27474 1513 ft 107 kts 88°
2026-04-16 23:35 -23.06291 -43.26668 1513 ft 107 kts 86°
2026-04-16 23:35 -23.06238 -43.25864 1513 ft 107 kts 86°
2026-04-16 23:36 -23.06224 -43.25057 1504 ft 107 kts 89°
2026-04-16 23:36 -23.06220 -43.24250 1512 ft 106 kts 90°
2026-04-16 23:36 -23.06221 -43.23445 1506 ft 107 kts 90°
2026-04-16 23:36 -23.06224 -43.22647 1507 ft 107 kts 90°
2026-04-16 23:37 -23.06226 -43.21840 1507 ft 107 kts 90°
2026-04-16 23:37 -23.06224 -43.21035 1505 ft 107 kts 89°
2026-04-16 23:37 -23.06215 -43.20228 1505 ft 107 kts 89°
2026-04-16 23:37 -23.06198 -43.19421 1504 ft 107 kts 88°
2026-04-16 23:38 -23.06172 -43.18615 1504 ft 107 kts 88°
2026-04-16 23:38 -23.06135 -43.17809 1503 ft 107 kts 86°
2026-04-16 23:38 -23.06096 -43.17003 1500 ft 107 kts 88°
2026-04-16 23:38 -23.06075 -43.16194 1499 ft 107 kts 89°
2026-04-16 23:39 -23.06065 -43.15386 1498 ft 107 kts 89°
2026-04-16 23:39 -23.06041 -43.14579 1499 ft 107 kts 86°
2026-04-16 23:39 -23.06005 -43.13774 1495 ft 107 kts 88°
2026-04-16 23:39 -23.05983 -43.12962 1493 ft 107 kts 89°
2026-04-16 23:40 -23.05969 -43.12155 1493 ft 107 kts 89°
2026-04-16 23:40 -23.05959 -43.11347 1490 ft 107 kts 89°
2026-04-16 23:40 -23.05903 -43.10540 1491 ft 107 kts 82°
2026-04-16 23:40 -23.05769 -43.09747 1489 ft 107 kts 78°
2026-04-16 23:41 -23.05611 -43.08966 1486 ft 107 kts 75°
2026-04-16 23:41 -23.05403 -43.08181 1487 ft 107 kts 74°
2026-04-16 23:41 -23.05212 -43.07408 1479 ft 107 kts 76°
2026-04-16 23:41 -23.05035 -43.06621 1478 ft 107 kts 77°
2026-04-16 23:42 -23.04871 -43.05832 1474 ft 107 kts 77°
2026-04-16 23:42 -23.04714 -43.05041 1471 ft 107 kts 78°
2026-04-16 23:42 -23.04561 -43.04249 1469 ft 107 kts 78°
2026-04-16 23:42 -23.04408 -43.03459 1466 ft 107 kts 78°
2026-04-16 23:43 -23.04224 -43.02674 1459 ft 108 kts 68°
2026-04-16 23:43 -23.03814 -43.01999 1441 ft 108 kts 45°
2026-04-16 23:43 -23.03149 -43.01627 1393 ft 111 kts
2026-04-16 23:43 -23.02422 -43.01776 1426 ft 106 kts 330°
2026-04-16 23:44 -23.01884 -43.02333 1388 ft 109 kts 309°
2026-04-16 23:44 -23.01419 -43.02953 1443 ft 104 kts 309°
2026-04-16 23:44 -23.00970 -43.03564 1464 ft 105 kts 308°
2026-04-16 23:44 -23.00514 -43.04200 1468 ft 105 kts 307°
2026-04-16 23:45 -23.00084 -43.04816 1547 ft 101 kts 307°
2026-04-16 23:45 -22.99663 -43.05442 1543 ft 105 kts 305°
2026-04-16 23:45 -22.99250 -43.06084 1579 ft 103 kts 304°
2026-04-16 23:45 -22.98845 -43.06730 1600 ft 104 kts 304°
2026-04-16 23:46 -22.98429 -43.07376 1622 ft 104 kts 305°
2026-04-16 23:46 -22.98004 -43.08011 1634 ft 105 kts 306°
2026-04-16 23:46 -22.97567 -43.08652 1600 ft 109 kts 306°
2026-04-16 23:46 -22.97111 -43.09320 1553 ft 110 kts 306°
2026-04-16 23:47 -22.96670 -43.09970 1526 ft 105 kts 306°
2026-04-16 23:47 -22.96233 -43.10612 1466 ft 104 kts 308°
2026-04-16 23:47 -22.95769 -43.11169 1468 ft 101 kts 322°
2026-04-16 23:47 -22.95134 -43.11468 1452 ft 99 kts 350°
2026-04-16 23:48 -22.94448 -43.11486 1442 ft 99 kts
2026-04-16 23:48 -22.93766 -43.11413 1446 ft 98 kts
2026-04-16 23:48 -22.93090 -43.11335 1461 ft 96 kts
2026-04-16 23:48 -22.92425 -43.11258 1468 ft 97 kts
2026-04-16 23:49 -22.91760 -43.11201 1494 ft 95 kts
2026-04-16 23:49 -22.91095 -43.11177 1498 ft 95 kts 357°
2026-04-16 23:49 -22.90532 -43.11574 1336 ft 104 kts 302°
2026-04-16 23:49 -22.90342 -43.12290 1352 ft 95 kts 280°
2026-04-16 23:50 -22.90114 -43.12938 1295 ft 94 kts 323°
2026-04-16 23:50 -22.89456 -43.13029 1152 ft 99 kts
2026-04-16 23:50 -22.88779 -43.13005 1115 ft 97 kts
2026-04-16 23:50 -22.88099 -43.13051 1050 ft 99 kts 345°
2026-04-16 23:51 -22.87550 -43.13472 943 ft 97 kts 306°
2026-04-16 23:51 -22.87331 -43.14161 748 ft 98 kts 276°
2026-04-16 23:51 -22.87312 -43.14888 615 ft 94 kts 269°
2026-04-16 23:51 -22.87345 -43.15588 472 ft 95 kts 261°
2026-04-16 23:52 -22.87647 -43.16189 392 ft 89 kts 218°
2026-04-16 23:52 -22.88190 -43.16425 368 ft 83 kts 188°
2026-04-16 23:52 -22.88769 -43.16446 349 ft 85 kts 178°
2026-04-16 23:52 -22.89352 -43.16392 294 ft 80 kts 174°
2026-04-16 23:53 -22.89863 -43.16362 210 ft 71 kts 178°
2026-04-16 23:53 -22.90360 -43.16329 86 ft 72 kts 176°
2026-04-16 23:53 -22.90823 -43.16294 14 ft 58 kts 175°
2026-04-16 23:53 -22.91150 -43.16269 14 ft 38 kts 176°
2026-04-16 23:54 -22.91313 -43.16259 14 ft 9 kts 186°
2026-04-16 23:54 -22.91336 -43.16278 14 ft 3 kts 243°
2026-04-16 23:54 -22.91342 -43.16322 14 ft 7 kts 266°
2026-04-16 23:54 -22.91345 -43.16375 14 ft 7 kts 268°
2026-04-16 23:55 -22.91346 -43.16405 14 ft 0 kts 266°
2026-04-16 23:55 -22.91346 -43.16406 14 ft 0 kts 266°
2026-04-16 23:55 -22.91347 -43.16426 14 ft 8 kts 267°
2026-04-16 23:56 -22.91344 -43.16459 14 ft 2 kts 345°
2026-04-16 23:56 -22.91304 -43.16436 14 ft 10 kts
2026-04-16 23:56 -22.91275 -43.16438 14 ft 12 kts 355°
2026-04-16 23:56 -22.91250 -43.16441 14 ft 0 kts 348°
2026-04-16 23:57 -22.91247 -43.16449 14 ft 4 kts 264°
2026-04-16 23:57 -22.91258 -43.16483 14 ft 3 kts 192°
2026-04-16 23:57 -22.91284 -43.16481 14 ft 6 kts 176°
2026-04-16 23:57 -22.91298 -43.16479 14 ft 0 kts 176°
2026-04-17 00:01 -22.91299 -43.16479 14 ft 0 kts 176°